Regional Weather Roundup
Issued by NWS

Home | Current Version | Previous Version | Graphics & Text | Print | Product List | Glossary On
Versions: 1 2 3 4 5 6 7 8 9 10 11 12 13 14 15 16 17 18 19 20 21 22 23 24 25 26 27 28 29 30 31 32 33 34 35 36 37 38 39 40 41 42 43 44 45 46 47 48 49 50
000
ASUS43 KOAX 260002
RWRNE

WEATHER ROUNDUP FOR NEBRASKA
NATIONAL WEATHER SERVICE OMAHA NE
600 PM CST TUE NOV 25 2014

NOTES: SATELLITE DATA IS BEING USED TO AUGMENT CLOUD COVER ABOVE
       12000 FEET.
       "FAIR" INDICATES FEW OR NO CLOUDS BELOW 12,000 FEET WITH NO
       SIGNIFICANT WEATHER AND/OR OBSTRUCTIONS TO VISIBILITY.

  * THESE STATIONS DO NOT REPORT WEATHER SUCH AS RAIN...SNOW OR FOG.

NEZ001>004-019>022-054>056-260100-
NEBRASKA PANHANDLE

CITY           SKY/WX    TMP DP  RH WIND       PRES   REMARKS
SCOTTSBLUFF    LGT RAIN  34  50 100 W8        29.92R WCI  27
6HR MIN TEMP:  34; 6HR MAX TEMP:  49; 6HR PCP:  0.03;

ALLIANCE       CLOUDY    38  31  76 NW14      29.87R WCI  30
6HR MIN TEMP:  38; 6HR MAX TEMP:  47;

CHADRON        CLOUDY    48  31  51 W16       29.87R
6HR MIN TEMP:  40; 6HR MAX TEMP:  51;

SIDNEY         CLOUDY    37  30  75 N22G30    29.90R WCI  26
6HR MIN TEMP:  37; 6HR MAX TEMP:  50;

$$

NEZ057>060-069>072-079>082-260100-
SOUTHWEST NEBRASKA

CITY           SKY/WX    TMP DP  RH WIND       PRES   REMARKS
NORTH PLATTE   CLOUDY    35  23  61 W3        29.83R
6HR MIN TEMP:  35; 6HR MAX TEMP:  45;

IMPERIAL       CLOUDY    46  27  47 NW24G33   29.86R
6HR MIN TEMP:  39; 6HR MAX TEMP:  50;

MCCOOK         CLOUDY    44  20  38 CALM      29.84S
6HR MIN TEMP:  43; 6HR MAX TEMP:  50;

$$

NEZ005>010-023>029-035>040-094-260100-
NORTH CENTRAL NEBRASKA

CITY           SKY/WX    TMP DP  RH WIND       PRES   REMARKS
VALENTINE      CLOUDY    37  33  85 W13       29.81R WCI  29
6HR MIN TEMP:  37; 6HR MAX TEMP:  44; 6HR PCP: TRACE;

BROKEN BOW     CLOUDY    41  27  57 W8        29.80F
6HR MIN TEMP:  40; 6HR MAX TEMP:  45;

ORD            MOCLDY    35  23  61 S7        29.80F WCI  29
6HR MIN TEMP:  35; 6HR MAX TEMP:  45;

$$

NEZ041-046>049-061>064-073>077-083>087-260100-
SOUTH CENTRAL NEBRASKA

CITY           SKY/WX    TMP DP  RH WIND       PRES   REMARKS
GRAND ISLAND   CLOUDY    44  21  40 S10       29.85F
6HR MIN TEMP:  42; 6HR MAX TEMP:  47;

HASTINGS       CLOUDY    45  19  35 SW10      29.86F
6HR MIN TEMP:  42; 6HR MAX TEMP:  46;

KEARNEY *      CLOUDY    43  18  36 S7        29.85F
YORK           CLOUDY    45  25  45 SW13G29   29.89F
$$

NEZ011>018-030>034-042>045-260100-
NORTHEAST NEBRASKA

CITY           SKY/WX    TMP DP  RH WIND       PRES   REMARKS
NORFOLK        LGT RAIN  42  29  59 SW13G24   29.85F
6HR MIN TEMP:  41; 6HR MAX TEMP:  45; 6HR PCP: TRACE;

COLUMBUS *     CLOUDY    45  25  45 SW13      29.90S
TEKAMAH        CLOUDY    38  24  57 SE14      29.93F WCI  30
6HR MIN TEMP:  38; 6HR MAX TEMP:  44;

$$

NEZ050>053-065>068-078-088>093-260100-
SOUTHEAST NEBRASKA

CITY           SKY/WX    TMP DP  RH WIND       PRES   REMARKS
LINCOLN        CLOUDY    42  25  50 S9        29.94S
6HR MIN TEMP:  41; 6HR MAX TEMP:  49;

OMAHA EPPLEY   CLOUDY    39  24  55 SE15      29.96F WCI  31
6HR MIN TEMP:  36; 6HR MAX TEMP:  43;

FALLS CITY     MOCLDY    36  23  59 SE10      30.01S WCI  28
6HR MIN TEMP:  35; 6HR MAX TEMP:  46;

$$

NEZ044-045-051>053-067-260100-
OMAHA AREA

CITY           SKY/WX    TMP DP  RH WIND       PRES   REMARKS
OMAHA EPPLEY   CLOUDY    39  24  55 SE15      29.96F WCI  31
6HR MIN TEMP:  36; 6HR MAX TEMP:  43;

OFFUTT AFB     CLOUDY    38  24  58 SE10      29.95F WCI  31
$$


USA.gov is the U.S. government's official web portal to all federal, state and local government web resources and services.